[[{"header":{"parameterUnit":"m.s-1","parameterCategory":1,"la1":30.2992,"la2":30.254,"lo1":-89.0895,"lo2":-89.0443,"dy":0.0025,"dx":0.0025,"nx":19,"ny":19,"refTime":"2026-05-04T21:00:00:Z","depth":0,"parameterNumber":2,"parameterNumberName":"U-component_of_WINDS"},"data":[0,0,0,0.2721,0.2721,0.274,0.274,0.2765,0.2765,0,0,0,0,0,0,0,0,0,0,0,0.2717,0.2717,0.2721,0.2722,0.274,0.274,0.2765,0.2765,0,0,0,0,0,0,0,0,0,0,0,0.2716,0.2717,0.2717,0.2722,0.274,0.274,0.2765,0.2751,0,0,0,0,0,0,0,0,0,0,0.2732,0.2729,0.2717,0.2717,0.2722,0.274,0.274,0.275,0.2751,0.2757,0,0.2763,0,0.2765,0.2767,0.2767,0,0,0,0.2721,0.2728,0.2732,0.2717,0.2722,0.274,0.2731,0.2751,0.2753,0.276,0.2764,0.2764,0.2765,0.2767,0.2767,0.2805,0.2805,0,0,0.272,0.272,0.2731,0.2733,0.2731,0.2731,0.2732,0.2752,0.2756,0.2764,0.2765,0.2766,0.2768,0.2768,0.2805,0.2805,0,0,0,0.2717,0.272,0.2723,0.2732,0.2736,0.2731,0.2733,0.2755,0.2756,0.2765,0.2766,0.2768,0.2768,0.2805,0.2805,0.2816,0,0,0,0.2717,0.2718,0.2723,0.2724,0.2735,0.2746,0.2736,0.2755,0.2757,0.2766,0.2768,0.2768,0.2804,0.2805,0.2815,0.2821,0,0,0,0.2715,0.2718,0.2721,0.2724,0.2732,0.2745,0.2748,0.2755,0.2758,0.2767,0.2768,0.2804,0.2805,0.2814,0.282,0.2831,0,0,0,0.2713,0.2731,0.2721,0.2741,0.2732,0.2752,0.2747,0.2763,0.2773,0.2768,0.2804,0.2805,0.2814,0.2819,0.283,0.2839,0.2844,0,0,0.2736,0.2734,0.2745,0.2737,0.276,0.2749,0.2774,0.2782,0.2782,0.2797,0.2798,0.2815,0.282,0.283,0.2868,0.2872,0,0,0,0.2753,0.2761,0.2767,0.2776,0.2783,0.2789,0.2793,0.2796,0.2809,0.279,0.2823,0.2825,0.2831,0.2836,0.2839,0.2844,0.2807,0.2807,0.2807,0.2785,0.2785,0.2804,0.2805,0.2814,0.2819,0.2826,0.2831,0.2827,0.2835,0.2839,0.2863,0.2868,0.287,0.2875,0.2845,0.2845,0.2845,0.2845,0.2818,0.2829,0.2824,0.2841,0.284,0.2854,0.2859,0.2856,0.2869,0.2859,0.2865,0.2854,0.2874,0.2878,0.2846,0.2846,0.2846,0.2846,0.2846,0.2838,0.2844,0.2847,0.286,0.2871,0.2872,0.2884,0.2883,0.2882,0.2888,0.2892,0.2891,0.2891,0.289,0.289,0.289,0.289,0.289,0.289,0.2858,0.2862,0.2872,0.2881,0.2887,0.2894,0.2899,0.2904,0.291,0.2908,0.2908,0.2904,0.2876,0.2869,0.2891,0.2891,0.2891,0.2891,0.2891,0.289,0.2882,0.2899,0.2904,0.2914,0.2924,0.2923,0.2934,0.2939,0.2945,0.294,0.292,0.2917,0.2915,0.2909,0.294,0.294,0.294,0.294,0.2906,0.2905,0.2921,0.2931,0.294,0.294,0.2958,0.2962,0.2965,0.2967,0.2963,0.2955,0.2953,0.2951,0.2948,0.2943,0.2982,0.2982,0.2982,0.2925,0.2925,0.2941,0.2943,0.2951,0.2958,0.2974,0.2985,0.2987,0.2984,0.2969,0.2968,0.2955,0.2951,0.2946,0.2942,0.2931,0,0]},{"header":{"parameterUnit":"m.s-1","parameterCategory":1,"la1":30.2992,"la2":30.254,"lo1":-89.0895,"lo2":-89.0443,"dy":0.0025,"dx":0.0025,"nx":19,"ny":19,"refTime":"2026-05-04T21:00:00:Z","depth":0,"parameterNumber":3,"parameterNumberName":"V-component_of_WINDS"},"data":[0,0,0,5.9966,5.9969,6.0118,6.0118,6.0305,6.0307,0,0,0,0,0,0,0,0,0,0,0,5.9925,5.9926,5.9966,5.997,6.0118,6.0118,6.0305,6.0307,0,0,0,0,0,0,0,0,0,0,0,5.9924,5.9926,5.9928,5.997,6.0118,6.0118,6.0304,6.0192,0,0,0,0,0,0,0,0,0,0,6.0048,6.0015,5.9926,5.9928,5.9971,6.0117,6.0118,6.0187,6.0199,6.0238,0,6.0277,0,6.0295,6.032,6.032,0,0,0,5.9966,6.0004,6.0042,5.9928,5.9972,6.0117,6.005,6.0194,6.0208,6.0255,6.028,6.0287,6.0298,6.0321,6.0322,6.0563,6.0565,0,0,5.9958,5.9952,6.0032,6.0051,6.0033,6.0045,6.0055,6.0202,6.0228,6.0281,6.0291,6.0301,6.0322,6.0324,6.0562,6.0564,0,0,0,5.9937,5.9947,5.9981,6.0044,6.0071,6.005,6.006,6.0222,6.0233,6.0293,6.0304,6.0323,6.0326,6.0561,6.0563,6.0621,0,0,0,5.9932,5.9934,5.9977,5.9975,6.0068,6.0149,6.0076,6.0223,6.024,6.0303,6.0323,6.0327,6.056,6.0562,6.0616,6.0649,0,0,0,5.9914,5.9932,5.9955,5.9975,6.0039,6.0147,6.0167,6.0227,6.0247,6.032,6.0328,6.0559,6.0561,6.0612,6.0642,6.071,0,0,0,5.9893,6.0004,5.9956,6.0083,6.0037,6.0183,6.0166,6.0274,6.0344,6.0324,6.056,6.0563,6.0611,6.0638,6.0705,6.0766,6.0791,0,0,6.003,6.002,6.0096,6.0057,6.021,6.0161,6.0321,6.0389,6.04,6.0507,6.0513,6.0618,6.0642,6.0709,6.0933,6.0953,0,0,0,6.0137,6.0191,6.0233,6.0301,6.0357,6.0407,6.0452,6.0476,6.0568,6.0455,6.0661,6.0675,6.0715,6.0744,6.0761,6.0794,6.0576,6.0576,6.0575,6.0322,6.0331,6.0456,6.0482,6.0548,6.0592,6.0644,6.0685,6.0674,6.0722,6.0754,6.0889,6.0923,6.0936,6.097,6.0787,6.0787,6.0787,6.0787,6.0523,6.06,6.0583,6.0697,6.0704,6.0799,6.0844,6.0832,6.0919,6.0867,6.0902,6.0843,6.0957,6.0988,6.0792,6.0791,6.0791,6.079,6.079,6.0645,6.0683,6.0713,6.081,6.0883,6.0904,6.0988,6.0991,6.0993,6.1028,6.1061,6.106,6.1058,6.1044,6.1044,6.1045,6.1045,6.1046,6.1046,6.076,6.0791,6.0863,6.0931,6.0973,6.1029,6.1072,6.1113,6.1158,6.1153,6.1153,6.1136,6.0968,6.0925,6.1053,6.1052,6.1051,6.105,6.105,6.0959,6.0914,6.1026,6.1068,6.1146,6.1216,6.1218,6.13,6.1334,6.1374,6.1349,6.1224,6.1214,6.1201,6.1165,6.1348,6.1348,6.1348,6.1348,6.1061,6.1056,6.117,6.1237,6.1303,6.1316,6.1437,6.147,6.1497,6.1517,6.149,6.1444,6.143,6.1428,6.1409,6.1376,6.1608,6.1609,6.1609,6.1183,6.1184,6.129,6.1317,6.1377,6.1427,6.154,6.1614,6.1635,6.1619,6.1532,6.1521,6.1445,6.1421,6.1404,6.1376,6.1315,0,0]}]]